www.pogodaiklimat.ru

ПОГОДА в Кампо, CA

  • Прогноз погоды в Кампо
  • Монитор погоды в Кампо
  • Климат в Кампо

АРХИВ ПОГОДЫ в Кампо

Время (UTC), дата Ветер
(напр.,м/с)
 
Видим.   Явления Облачность Т
(С)
Тd
(С)
f
(%)
Тe
(С)
Тes
(С)
Комфортность

P
(гПа)

Po
(гПа)
Тmin
(С)
Tmax
(С)
R
(мм)
SD
(см)
21:52 23.06 З  н/о    н/о  +31.1  +8.9  25  +30  +30  жарко  1010.3  920.1         
22:52 23.06 З  6
{10} 
н/о    н/о  +30.0  +6.7  23  +29  +29  жарко  1010.2  919.8  +29.4  +33.9     
23:52 23.06 З  н/о    н/о  +29.4  +5.6  22  +28  +28  жарко  1010.0  919.5         
00:52 24.06 ЮЗ  н/о    н/о  +23.9  +13.9  54  +26  +26  жарко  1010.6  919.8         
01:52 24.06 ЮЗ  н/о    н/о  +19.4  +13.3  68  +21  +21  комфорт  1010.6  920.1         
02:52 24.06 Ю  н/о    н/о  +16.7  +13.3  80  +16  +16    1010.7  920.7         
03:52 24.06 СВ  н/о    н/о  +14.4  +11.1  81  +14  +14    1011.2  921.0         
04:52 24.06 СВ  н/о    н/о  +12.2  +9.4  83  +12  +12    1011.3  921.0  +12.2  +30.0     
05:52 24.06 СВ  н/о    н/о  +12.8  +10.0  83  +12  +12    1010.9  920.7         
06:52 24.06   н/о    н/о  +10.6  +8.9  89  +10  +10    1010.8  920.4         
07:52 24.06   н/о    н/о  +9.4  +7.8  90  +9  +9    1010.4  920.1         
08:52 24.06   н/о    н/о  +9.4  +7.2  86  +9  +9    1010.5  920.1         
09:52 24.06 СВ  н/о    н/о  +8.9  +7.2  89  +6  +6    1010.2  919.8         
10:52 24.06 СВ  н/о    н/о  +10.0  +6.7  80  +8  +8    1009.9  919.5  +7.2  +13.9     
11:52 24.06 СВ  н/о    н/о  +8.9  +6.1  83  +6  +6    1010.0  919.8         
12:52 24.06 СВ  н/о    н/о  +11.1  +6.7  74  +10  +10    1010.3  919.8         
13:52 24.06   н/о    н/о  +18.3  +8.3  52  +18  +18    1010.3  919.8         
14:52 24.06 ЮЗ  н/о    н/о  +23.9  +6.7  33  +24  +24  комфорт  1010.1  919.8         
15:52 24.06 ЮЗ  н/о    н/о  +26.1  +6.1  28  +26  +26  жарко  1010.0  919.8         
16:52 24.06 ЮЗ  н/о    н/о  +26.7  +10.6  36  +27  +27  жарко  1010.1  919.8  +6.7  +26.7     
17:52 24.06 ЮЗ  н/о    н/о  +28.3  +12.8  38  +30  +30  жарко  1009.6  919.2         
18:52 24.06 ЮЗ  8
{10} 
н/о    н/о  +30.0  +12.8  35  +31  +31  жарко  1009.2  918.9         
19:52 24.06 З  н/о    н/о  +30.6  +11.7  31  +31  +31  жарко  1009.1  918.9         
20:52 24.06 З  4
{10} 
н/о    н/о  +31.1  +10.0  27  +31  +31  жарко  1008.7  918.6         
21:52 24.06 З  4
{9} 
н/о    н/о  +30.6  +10.6  29  +31  +31  жарко  1008.5  918.3         
22:52 24.06 ЮЗ  н/о    н/о  +28.3  +13.9  41  +30  +30  жарко  1008.3  917.9  +26.7  +31.7     
23:52 24.06 ЮЗ  7
{10} 
н/о    н/о  +25.0  +13.9  50  +27  +27  жарко  1008.5  917.9         
00:52 25.06 ЮЗ  н/о    н/о  +21.7  +13.3  59  +24  +24  комфорт  1008.8  918.3         
01:52 25.06 ЮЗ  н/о    н/о  +18.3  +13.3  73  +18  +18    1008.7  918.3         
02:52 25.06 Ю  н/о    н/о  +15.6  +12.8  83  +15  +15    1008.9  918.6         
03:52 25.06 Ю  н/о    н/о  +14.4  +12.8  90  +14  +14    1009.3  918.9         
04:52 25.06   н/о    н/о  +12.8  +10.6  86  +12  +12    1009.3  918.9  +12.2  +28.9     
05:52 25.06 С  н/о    н/о  +11.1  +9.4  89  +10  +10    1009.2  918.9         
06:52 25.06 СВ  н/о    н/о  +10.6  +8.9  89  +9  +9    1008.8  918.6         
07:52 25.06 С  н/о    н/о  +10.6  +8.9  89  +10  +10    1008.3  918.3         
08:52 25.06 СВ  н/о    н/о  +10.6  +8.3  86  +9  +9    1008.0  917.9         
09:52 25.06 СВ  н/о    н/о  +9.4  +7.2  86  +7  +7    1007.8  917.6         
10:52 25.06 СВ  н/о    н/о  +7.8  +6.1  89  +6  +6    1008.0  917.6  +7.8  +12.8     
11:52 25.06 СВ  н/о    н/о  +8.9  +6.1  83  +6  +6    1008.5  917.9         
12:52 25.06 СВ  н/о    н/о  +11.7  +7.2  74  +10  +10    1008.8  918.3         
13:52 25.06   н/о    н/о  +17.8  +10.0  60  +18  +18    1008.9  918.3         
14:52 25.06   н/о    н/о  +21.1  +8.9  46  +22  +22  комфорт  1009.2  918.6         
15:52 25.06 ЮЗ  н/о    н/о  +22.2  +11.1  49  +24  +24  комфорт  1009.6  919.2         
16:52 25.06 ЮЗ  н/о    н/о  +21.1  +11.7  55  +23  +23  комфорт  1010.1  919.5  +7.8  +22.2     
17:52 25.06 Ю  н/о    н/о  +24.4  +8.9  37  +25  +25  комфорт  1009.9  919.2         
18:52 25.06 ЮЗ  н/о    н/о  +25.6  +11.1  40  +27  +27  жарко  1009.9  919.2         
19:52 25.06 ЮЗ  н/о    н/о  +25.0  +11.7  43  +26  +26  жарко  1009.7  919.2         
20:52 25.06 ЮЗ  н/о    н/о  +25.6  +11.7  42  +27  +27  жарко  1009.1  918.6         

 

Местоположение метеостанции Campo: широта 32.6261 долгота -116.4683 высота над уровнем моря 807 м.

В архиве по умолчанию представлена погода в Кампо за последние 1-2 суток. Обновление информации о фактической погоде в базе происходит ежечасно! Архивные данные за месяц целиком и за предыдущие месяцы Вы можете получить, выбрав интересующий диапазон дат из раскрывающегося списка и нажав кнопку "Ввод!".

Внимание! Архив погоды МЕТАР в базе сайта хранится не более 60 дней. Нет смысла пытаться выбрать более раннюю дату.

Внимание! Время в таблицах - всемирное. Для получения местного времени необходимо прибавить поправку, которая в Кампо равна -8 ч.

Ветер - указаны скорость ветра в м/с и направление, откуда дует ветер: С - северный, СВ - северо-восточный, В - восточный, ЮВ - юго-восточный, Ю - южный, ЮЗ - юго-западный, З - западный, СЗ - северо-западный.
Видимость - горизонтальная дальность видимости в метрах или километрах. При видимости от 1 до 10 км при отсутствии осадков обычно наблюдается дымка, при ухудшении видимости до 1 км и менее - туман. В сухую погоду видимость может ухудшаться дымом, пылью или мглою.
Атмосферные явления - указаны явления, наблюдавшиеся в указанный момент времени.
Облачность - указаны через наклонную черту верхняя и нижняя облачность в баллах и высота нижней границы облаков в метрах. Внимание: облачность, как и прочие метеорологические величины в США измеряются автоматическими метеостанциями. Указанные значения в баллах носят условный характер и показывают процент времени, в течение которого, в среднем, лазерный луч высотомера отражался от облаков обратно.
T - Температура воздуха - температура, измеренная на высоте 2 м над землей.
Td - Температура точки росы - температура, при понижении до которой содержащийся в воздухе водяной пар достигнет насыщения.
f - Относительная влажность воздуха - влажноcть воздуха, измеренная на высоте 2 м над землей.
Te - Эффективная температура - температура, которую ощущает одетый по сезону человек в тени. Характеристика душности погоды. При расчете учитывается влияние влажности воздуха и скорости ветра на теплоощущения человека.
Tes - Эффективная температура на солнце - температура, которую ощущает человек, с поправкой на солнечный нагрев. Характеристика знойности погоды. Зависит от высоты солнца над горизонтом, облачности и скорости ветра. Ночью, в пасмурную погоду, а также при ветре 12 м/с и более поправка равна нулю.
P - Атмосферное давление - приведенное к уровню моря атмосферное давление.
Po - Атмосферное давление - измеренное на уровне метеостанции атмосферное давление.
Tmin - Минимальная температура - минимум температуры воздуха на высоте 2 м над землей.
Tmax - Максимальная температура - максимум температуры воздуха на высоте 2 м над землей.
R - Количество осадков - Количество выпавших осадков за 3 или 6 часов, мм.
SD - Снежный покров - Высота снежного покрова, см.